Location: Camp Crooked Creek
(37.9149°N, 85.6607°W)
Time: 11:06:49
(UTC-04:00)

Amateur Radio Satellites - All Passes

Search period start: 23 July 2016 10:36
Search period end: 24 July 2016 10:36
Location: Camp Crooked Creek, 37.9149°N, 85.6607°W

Satellite Date Start Highest point End Downlink Frequencies (MHz)
Time Altitude Azimuth
SEEDS 23 Jul 10:46:48 10:50:19 26° 290° (WNW) 10:53:48 437.485
Cosmos 2504 23 Jul 10:49:51 10:55:00 17° 78° (ENE) 11:00:09 435.465 / 435.565
PRISM 23 Jul 10:54:49 10:55:50 11° 268° (W) 10:56:51 437.425
AUBIESAT-1 23 Jul 10:58:40 11:02:17 22° 99° (E) 11:05:54 437.475
DELFI C3 23 Jul 11:05:14 11:08:57 39° 98° (E) 11:12:38 145.870
COMPASS 1 23 Jul 11:07:21 11:10:34 22° 291° (WNW) 11:13:47 437.405
Oscar 11 23 Jul 11:11:52 11:16:10 68° 284° (WNW) 11:20:26 145.826/435.025
NANOSAT C BR1 23 Jul 11:12:26 11:12:45 10° 63° (ENE) 11:13:04 145.865
ANTELSAT 23 Jul 11:13:37 11:18:11 81° 76° (ENE) 11:22:53 437.575/2403.000
DUCHIFAT 1 23 Jul 11:17:59 11:19:15 11° 64° (ENE) 11:20:31 145.980
HO-68 23 Jul 11:23:59 11:29:34 25° 300° (WNW) 11:35:09 435.675
SO-50 23 Jul 11:28:04 11:31:53 22° 312° (NW) 11:35:42 436.795
QB50P1 23 Jul 11:29:27 11:32:16 18° 67° (ENE) 11:35:06 145.935-145.965
POPSAT HIP 1 23 Jul 11:35:10 11:38:14 20° 68° (ENE) 11:41:20 437.405
AAUSAT CUBESAT 2 23 Jul 11:41:33 11:43:14 12° 295° (WNW) 11:44:54 437.432
UWE-3 23 Jul 11:47:31 11:50:56 21° 293° (WNW) 11:54:18 435.000/436.395/437.385
BUGSAT 1 23 Jul 11:51:25 11:52:34 11° 64° (ENE) 11:53:44 437.445
QB50P2 23 Jul 11:54:01 11:57:52 35° 71° (ENE) 12:01:44 145.880/145.840
POLYITAN 1 23 Jul 11:56:37 12:00:30 35° 72° (ENE) 12:04:24 437.675
TIGRISAT 23 Jul 11:57:10 12:01:21 35° 263° (W) 12:05:39 435.000
ZACube-1 23 Jul 11:58:11 12:01:44 23° 292° (WNW) 12:05:14 437.345
YUBILEINY 23 Jul 11:58:50 12:07:26 59° 281° (W) 12:16:08 435.215
FUNcube-1 23 Jul 11:59:46 12:03:21 23° 292° (WNW) 12:06:51 145.935
CUBEBUG 2 23 Jul 12:01:53 12:03:15 11° 298° (WNW) 12:04:36 437.445
M-CUBED/EXP-1 PRIME 23 Jul 12:02:09 12:06:46 62° 290° (WNW) 12:11:24 437.505
UNISAT 6 23 Jul 12:12:42 12:16:20 23° 266° (W) 12:20:04 437.425
RS-15 23 Jul 12:13:16 12:21:39 21° 340° (NNW) 12:30:17 29.354- 29.394
HUMSAT D 23 Jul 12:15:22 12:19:33 62° 285° (WNW) 12:23:39 437.325/437.525
VELOX 1 23 Jul 12:18:14 12:19:23 11° 91° (E) 12:20:32 145.980
CUBEBUG 1 23 Jul 12:29:35 12:32:36 18° 94° (E) 12:35:37 437.445
Cosmos 2491 23 Jul 12:30:33 12:35:26 16° 282° (WNW) 12:40:20 435.465 / 435.565
AUBIESAT-1 23 Jul 12:32:32 12:36:44 36° 294° (WNW) 12:40:58 437.475
Cosmos 2504 23 Jul 12:38:17 12:47:05 90° 123° (ESE) 12:56:02 435.465 / 435.565
DELFI C3 23 Jul 12:41:23 12:43:25 14° 294° (WNW) 12:45:28 145.870
NANOSAT C BR1 23 Jul 12:43:41 12:47:53 67° 259° (W) 12:52:07 145.865
DUCHIFAT 1 23 Jul 12:50:15 12:54:24 60° 260° (W) 12:58:35 145.980
JAS-2 23 Jul 12:54:30 13:00:35 49° 72° (ENE) 13:06:02 435.910
AISAT 23 Jul 12:59:58 13:04:06 36° 98° (E) 13:08:12 437.250
QB50P1 23 Jul 13:03:51 13:07:45 36° 262° (W) 13:11:41 145.935-145.965
POPSAT HIP 1 23 Jul 13:10:01 13:13:47 31° 263° (W) 13:17:37 437.405
DX 1 23 Jul 13:15:28 13:19:30 36° 98° (E) 13:23:33 434.975-435.025
ESTCUBE 1 23 Jul 13:16:17 13:20:46 86° 288° (WNW) 13:25:15 437.505/2401.250
BUGSAT 1 23 Jul 13:23:27 13:27:25 56° 260° (W) 13:31:28 437.445
QB50P2 23 Jul 13:30:53 13:33:45 18° 266° (W) 13:36:38 145.880/145.840
POLYITAN 1 23 Jul 13:33:34 13:36:24 17° 267° (W) 13:39:14 437.675
Oscar 19 23 Jul 13:34:46 13:39:10 30° 68° (ENE) 13:43:35 437.125/150
UKube-1 23 Jul 13:37:27 13:41:40 51° 100° (E) 13:45:52 .
50 SAT 23 Jul 13:39:50 13:43:25 64° 284° (WNW) 13:46:57 437.505
VELOX 1 23 Jul 13:51:48 13:56:11 61° 286° (WNW) 14:00:34 145.980
TISAT 1 23 Jul 13:56:44 13:59:11 15° 93° (E) 14:01:36 437.305
CUBEBUG 1 23 Jul 14:04:57 14:08:59 36° 288° (WNW) 14:13:00 437.445
AO-7 23 Jul 14:19:23 14:22:57 13° 48° (NE) 14:26:32 29.400- 29.500
SPROUT 23 Jul 14:19:25 14:23:41 62° 285° (WNW) 14:27:56 437.525
Gurwin Techsat 1B 23 Jul 14:19:28 14:24:16 36° 69° (ENE) 14:29:05 435.225
RS-15 23 Jul 14:32:21 14:40:48 20° 18° (NNE) 14:49:18 29.354- 29.394
Cosmos 2504 23 Jul 14:35:54 14:41:39 19° 295° (WNW) 14:47:26 435.465 / 435.565
AISAT 23 Jul 14:37:07 14:40:17 19° 293° (WNW) 14:43:28 437.250
JAS-2 23 Jul 14:40:58 14:45:46 22° 264° (W) 14:50:14 435.910
DX 1 23 Jul 14:52:23 14:55:25 19° 293° (WNW) 14:58:27 434.975-435.025
AIST 1 23 Jul 14:57:59 15:02:14 88° 97° (E) 15:06:31
ITAMSAT 1 23 Jul 14:59:30 15:03:56 29° 67° (ENE) 15:08:23 435.822/435.867
SWISSCUBE 23 Jul 15:03:59 15:07:11 18° 94° (E) 15:10:21 437.505
Oscar 19 23 Jul 15:13:59 15:18:25 29° 264° (W) 15:22:51 437.125/150
UKube-1 23 Jul 15:15:06 15:17:15 14° 296° (WNW) 15:19:24 .
AO-85 23 Jul 15:20:16 15:25:25 45° 115° (ESE) 15:30:24 145.980
BEESAT 23 Jul 15:25:12 15:29:14 27° 96° (E) 15:33:14 436.000
TISAT 1 23 Jul 15:30:58 15:34:59 41° 288° (WNW) 15:38:58 437.305
ITUPSAT 1 23 Jul 15:45:01 15:49:34 42° 99° (E) 15:54:04 437.325
Cosmos 2499 23 Jul 15:53:36 16:00:07 24° 81° (E) 16:06:35 435.465 / 435.565
Gurwin Techsat 1B 23 Jul 15:59:51 16:04:14 26° 265° (W) 16:08:39 435.225
AO-7 23 Jul 16:05:52 16:14:05 64° 68° (ENE) 16:22:20 29.400- 29.500
GONETS M04 23 Jul 16:06:35 16:14:24 40° 87° (E) 16:22:16
DANDE 23 Jul 16:33:08 16:35:10 20° 77° (ENE) 16:37:17 436.750
ITAMSAT 1 23 Jul 16:38:38 16:43:17 32° 263° (W) 16:47:57 435.822/435.867
SWISSCUBE 23 Jul 16:40:39 16:45:09 43° 288° (WNW) 16:49:36 437.505
KKS-1 23 Jul 16:41:02 16:44:10 19° 94° (E) 16:47:18 437.445
MOZHAYETS 4 23 Jul 16:44:13 16:47:46 22° 94° (E) 16:51:17
RS-15 23 Jul 16:45:29 16:57:24 50° 48° (NE) 17:09:10 29.354- 29.394
CUSAT 1 23 Jul 16:49:49 16:52:26 32° 263° (W) 16:55:32 437.405
HORYU 2 23 Jul 17:01:23 17:04:55 23° 68° (ENE) 17:08:29 437.375
AO-85 23 Jul 17:01:35 17:06:04 26° 311° (NW) 17:10:23 145.980
BEESAT 23 Jul 17:02:52 17:06:57 29° 291° (WNW) 17:11:00 436.000
ITUPSAT 1 23 Jul 17:23:44 17:27:03 19° 295° (WNW) 17:30:21 437.325
STARS 23 Jul 17:30:40 17:34:39 32° 97° (E) 17:38:37 437.465
Cosmos 2499 23 Jul 17:43:32 17:52:23 72° 279° (W) 18:01:12 435.465 / 435.565
CUTE-I 23 Jul 17:48:57 17:51:37 14° 61° (ENE) 17:54:16 437.470
NOAA 18 23 Jul 17:49:11 17:52:16 15° 61° (ENE) 17:55:22 137.9125
CUBESAT XI-V 23 Jul 17:53:05 17:55:25 14° 92° (E) 17:57:45 437.345
AO-7 23 Jul 18:00:37 18:07:18 26° 265° (W) 18:14:03 29.400- 29.500
GONETS M04 23 Jul 18:03:02 18:11:05 41° 285° (WNW) 18:19:13
KKS-1 23 Jul 18:16:42 18:20:50 37° 289° (WNW) 18:24:56 437.445
SO-50 23 Jul 18:20:03 18:23:59 26° 49° (NE) 18:27:48 436.795
NOAA 15 23 Jul 18:20:27 18:25:12 36° 69° (ENE) 18:29:58 137.62
MOZHAYETS 4 23 Jul 18:20:53 18:24:57 32° 289° (WNW) 18:28:58
HORYU 2 23 Jul 18:37:23 18:41:18 30° 263° (W) 18:45:16 437.375
GOMX 1 23 Jul 18:49:31 18:53:08 29° 70° (ENE) 18:56:48 467.674
RS-15 23 Jul 18:58:18 19:09:59 52° 250° (WSW) 19:21:27 29.354- 29.394
Cubesat XI-IV 23 Jul 19:00:38 19:05:57 64° 73° (ENE) 19:11:17 437.490
BRITE-PL 23 Jul 19:03:40 19:07:53 73° 259° (W) 19:12:01 437.365/2234.400
DOVE 4 23 Jul 19:04:03 19:07:04 19° 67° (ENE) 19:10:10 437.250
STARS 23 Jul 19:07:25 19:10:48 22° 293° (WNW) 19:14:11 437.465
LilacSat-2 23 Jul 19:14:05 19:17:55 86° 77° (ENE) 19:21:50 437.200
CUTE-I 23 Jul 19:25:37 19:30:59 75° 257° (WSW) 19:36:23 437.470
NOAA 18 23 Jul 19:26:46 19:32:16 72° 257° (WSW) 19:37:49 137.9125
CUBESAT XI-V 23 Jul 19:28:37 19:33:05 51° 286° (WNW) 19:37:32 437.345
PHONESAT 2.4 23 Jul 19:42:29 19:45:26 45° 156° (SSE) 19:48:25 2401.200-2431.200
Cosmos 2499 23 Jul 19:43:02 19:47:04 14° 299° (WNW) 19:51:06 435.465 / 435.565
CINEMA 3 23 Jul 19:45:53 19:48:41 17° 65° (ENE) 19:51:33 145.822/145.860
BEESAT 2 23 Jul 19:51:28 19:53:39 14° 109° (ESE) 19:55:50 435.950
BEESAT 3 23 Jul 19:52:16 19:55:39 29° 114° (ESE) 19:59:05 437.485
SO-50 23 Jul 20:00:22 20:04:27 32° 247° (WSW) 20:08:25 436.795
NOAA 15 23 Jul 20:00:43 20:05:00 25° 264° (W) 20:09:19 137.62
HO-68 23 Jul 20:02:05 20:08:34 38° 65° (ENE) 20:15:05 435.675
SEEDS 23 Jul 20:02:39 20:04:43 13° 66° (ENE) 20:06:46 437.485
YUBILEINY 23 Jul 20:18:43 20:21:07 11° 59° (ENE) 20:23:31 435.215
COMPASS 1 23 Jul 20:21:43 20:24:08 15° 67° (ENE) 20:26:33 437.405
GOMX 1 23 Jul 20:28:21 20:31:17 19° 267° (W) 20:34:17 467.674
CANX-2 23 Jul 20:34:53 20:39:02 51° 74° (ENE) 20:43:12 2200.000
DOVE 4 23 Jul 20:40:47 20:44:32 32° 264° (W) 20:48:26 437.250
Cubesat XI-IV 23 Jul 20:43:33 20:46:26 15° 269° (W) 20:49:19 437.490
CUTE 1.7 + AOD 2 23 Jul 20:49:02 20:53:16 65° 76° (ENE) 20:57:31 437.475
AAUSAT CUBESAT 2 23 Jul 20:52:54 20:56:23 26° 70° (ENE) 20:59:53 437.432
STRAND 1 23 Jul 20:56:30 21:01:37 70° 102° (ESE) 21:06:41 437.568
UWE-3 23 Jul 21:05:49 21:09:28 24° 68° (ENE) 21:13:11 435.000/436.395/437.385
PCSat 23 Jul 21:12:30 21:17:55 84° 116° (ESE) 21:23:22 145.827
ZACube-1 23 Jul 21:16:00 21:19:19 21° 67° (ENE) 21:22:41 437.345
FUNcube-1 23 Jul 21:17:26 21:20:41 20° 67° (ENE) 21:23:58 145.935
CUBEBUG 2 23 Jul 21:18:30 21:22:51 49° 73° (ENE) 21:27:20 437.445
PHONESAT 2.4 23 Jul 21:18:55 21:21:57 56° 352° (N) 21:25:00 2401.200-2431.200
CINEMA 3 23 Jul 21:21:13 21:25:24 43° 262° (W) 21:29:48 145.822/145.860
BEESAT 2 23 Jul 21:27:21 21:31:06 42° 305° (NW) 21:34:54 435.950
BEESAT 3 23 Jul 21:30:13 21:33:20 22° 310° (NW) 21:36:28 437.485
SEEDS 23 Jul 21:35:52 21:39:58 49° 261° (W) 21:44:05 437.485
Cosmos 2491 23 Jul 21:36:42 21:42:30 20° 80° (E) 21:48:18 435.465 / 435.565
AUBIESAT-1 23 Jul 21:43:55 21:46:24 17° 61° (ENE) 21:49:00 437.475
HO-68 23 Jul 21:49:36 21:56:11 39° 262° (W) 22:02:50 435.675
DELFI C3 23 Jul 21:50:05 21:52:55 19° 69° (ENE) 21:55:45 145.870
COMPASS 1 23 Jul 21:55:22 21:59:20 41° 262° (W) 22:03:19 437.405
Oscar 11 23 Jul 22:04:21 22:08:42 72° 75° (ENE) 22:13:03 145.826/435.025
YUBILEINY 23 Jul 22:11:00 22:19:49 66° 80° (E) 22:28:32 435.215
CANX-2 23 Jul 22:13:28 22:15:09 12° 269° (W) 22:16:51 2200.000
O/OREOS (USA 219) 23 Jul 22:21:20 22:25:48 80° 110° (ESE) 22:30:17 437.305
AAUSAT CUBESAT 2 23 Jul 22:28:33 22:31:49 22° 265° (W) 22:35:05 437.432
ISS 23 Jul 22:31:32 22:33:43 17° 130° (SE) 22:35:55 145.825
PRISM 23 Jul 22:34:27 22:38:33 73° 284° (WNW) 22:42:37 437.425
Cosmos 2504 23 Jul 22:34:48 22:41:47 30° 70° (ENE) 22:48:21 435.465 / 435.565
STRAND 1 23 Jul 22:37:43 22:40:09 14° 298° (WNW) 22:42:35 437.568
UWE-3 23 Jul 22:41:49 22:45:45 29° 264° (W) 22:49:48 435.000/436.395/437.385
M-CUBED/EXP-1 PRIME 23 Jul 22:47:21 22:50:53 60° 255° (WSW) 22:54:44 437.505
ZACube-1 23 Jul 22:51:13 22:55:19 35° 263° (W) 22:59:31 437.345
FUNcube-1 23 Jul 22:52:31 22:56:38 36° 263° (W) 23:00:51 145.935
AIST 2 23 Jul 22:54:08 22:58:13 72° 119° (ESE) 23:02:20 435.215
PHONESAT 2.4 23 Jul 22:55:38 22:58:40 57° 8° (N) 23:01:43 2401.200-2431.200
CUBEBUG 2 23 Jul 22:57:16 22:59:45 14° 269° (W) 23:02:16 437.445
PCSat 23 Jul 22:58:53 23:02:00 15° 315° (NW) 23:05:08 145.827
HUMSAT D 23 Jul 23:04:12 23:08:28 69° 75° (ENE) 23:12:47 437.325/437.525
ANTELSAT 23 Jul 23:08:06 23:11:31 20° 93° (E) 23:14:51 437.575/2403.000
AUBIESAT-1 23 Jul 23:17:20 23:20:36 31° 259° (W) 23:24:06 437.475
DELFI C3 23 Jul 23:24:05 23:27:34 28° 263° (W) 23:31:03 145.870
CUBEBUG 1 23 Jul 23:25:16 23:27:06 13° 64° (ENE) 23:28:56 437.445
Cosmos 2491 23 Jul 23:29:35 23:38:18 76° 278° (W) 23:47:03 435.465 / 435.565
TIGRISAT 23 Jul 23:50:04 23:54:40 55° 100° (E) 23:59:08 435.000
AO-85 23 Jul 23:54:49 23:58:15 22° 47° (NE) 00:01:29 145.980
AISAT 23 Jul 23:55:55 23:59:34 26° 69° (ENE) 00:03:12 437.250
UNISAT 6 24 Jul 00:05:03 00:09:45 86° 103° (ESE) 00:14:19 437.425
O/OREOS (USA 219) 24 Jul 00:05:24 00:05:47 10° 307° (NW) 00:06:11 437.305
ISS 24 Jul 00:06:48 00:09:54 42° 325° (NW) 00:13:02 145.825
YUBILEINY 24 Jul 00:09:09 00:15:48 25° 278° (W) 00:22:27 435.215
DX 1 24 Jul 00:09:34 00:13:07 25° 69° (ENE) 00:16:41 434.975-435.025
ESTCUBE 1 24 Jul 00:13:43 00:18:11 69° 76° (ENE) 00:22:40 437.505/2401.250
50 SAT 24 Jul 00:15:29 00:18:55 38° 73° (ENE) 00:22:22 437.505
Cosmos 2504 24 Jul 00:27:39 00:35:30 51° 271° (W) 00:42:48 435.465 / 435.565
UKube-1 24 Jul 00:30:17 00:34:09 34° 71° (ENE) 00:38:03 .
NANOSAT C BR1 24 Jul 00:30:28 00:33:47 22° 95° (E) 00:37:04 145.865
PHONESAT 2.4 24 Jul 00:32:14 00:35:10 43° 205° (SSW) 00:38:06 2401.200-2431.200
AIST 2 24 Jul 00:35:26 00:37:11 12° 316° (NW) 00:38:57 435.215
DUCHIFAT 1 24 Jul 00:36:34 00:40:02 24° 95° (E) 00:43:28 145.980
ANTELSAT 24 Jul 00:44:02 00:48:18 36° 289° (WNW) 00:52:29 437.575/2403.000
VELOX 1 24 Jul 00:47:00 00:51:22 87° 257° (WSW) 00:55:47 145.980
QB50P1 24 Jul 00:50:01 00:54:03 38° 98° (E) 00:58:02 145.935-145.965
POPSAT HIP 1 24 Jul 00:56:01 01:00:09 45° 99° (E) 01:04:14 437.405
CUBEBUG 1 24 Jul 00:58:40 01:02:53 54° 260° (W) 01:07:07 437.445
BUGSAT 1 24 Jul 01:07:19 01:10:44 23° 96° (E) 01:14:07 437.445
AIST 1 24 Jul 01:07:37 01:10:36 18° 74° (ENE) 01:13:34
SPROUT 24 Jul 01:10:46 01:15:01 78° 76° (ENE) 01:19:18 437.525
QB50P2 24 Jul 01:15:48 01:20:07 85° 99° (E) 01:24:24 145.880/145.840
POLYITAN 1 24 Jul 01:18:27 01:22:47 87° 109° (ESE) 01:27:04 437.675
TIGRISAT 24 Jul 01:28:20 01:30:49 14° 296° (WNW) 01:33:18 435.000
AISAT 24 Jul 01:32:19 01:35:56 25° 264° (W) 01:39:35 437.250
Cosmos 2491 24 Jul 01:32:43 01:36:42 14° 299° (WNW) 01:40:42 435.465 / 435.565
AO-85 24 Jul 01:34:54 01:38:48 34° 247° (WSW) 01:42:25 145.980
DX 1 24 Jul 01:45:39 01:49:13 25° 264° (W) 01:52:48 434.975-435.025
ISS 24 Jul 01:46:06 01:47:01 11° 344° (NNW) 01:47:56 145.825
JAS-2 24 Jul 01:49:34 01:54:38 46° 100° (E) 02:00:04 435.910
Oscar 19 24 Jul 01:50:01 01:51:41 11° 90° (E) 01:53:19 437.125/150
50 SAT 24 Jul 01:51:27 01:52:43 11° 268° (W) 01:53:59 437.505
NANOSAT C BR1 24 Jul 02:05:48 02:09:29 29° 290° (WNW) 02:13:08 145.865
UKube-1 24 Jul 02:07:16 02:10:16 18° 266° (W) 02:13:17 .
SWISSCUBE 24 Jul 02:09:03 02:12:16 18° 65° (ENE) 02:15:29 437.505
DUCHIFAT 1 24 Jul 02:12:05 02:15:38 26° 290° (WNW) 02:19:11 145.980
GONETS M04 24 Jul 02:19:48 02:25:14 17° 64° (ENE) 02:30:40
TISAT 1 24 Jul 02:20:17 02:24:27 72° 259° (W) 02:28:40 437.305
QB50P1 24 Jul 02:26:43 02:29:29 17° 293° (WNW) 02:32:14 145.935-145.965
BEESAT 24 Jul 02:30:00 02:33:57 26° 68° (ENE) 02:37:55 436.000
POPSAT HIP 1 24 Jul 02:33:05 02:35:31 15° 294° (WNW) 02:37:57 437.405
Gurwin Techsat 1B 24 Jul 02:38:28 02:41:41 16° 92° (E) 02:44:52 435.225
BUGSAT 1 24 Jul 02:42:27 02:46:02 27° 290° (WNW) 02:49:36 437.445
AIST 1 24 Jul 02:44:22 02:48:16 33° 269° (W) 02:52:09
ITUPSAT 1 24 Jul 02:49:55 02:54:25 41° 71° (ENE) 02:58:55 437.325
ITAMSAT 1 24 Jul 03:16:44 03:17:42 10° 90° (E) 03:18:40 435.822/435.867
Oscar 19 24 Jul 03:26:19 03:31:30 75° 285° (WNW) 03:36:39 437.125/150
JAS-2 24 Jul 03:35:43 03:39:29 20° 294° (WNW) 03:43:23 435.910
KKS-1 24 Jul 03:38:18 03:40:43 15° 65° (ENE) 03:43:09 437.445
Cosmos 2499 24 Jul 03:38:28 03:45:43 37° 73° (ENE) 03:52:26 435.465 / 435.565
MOZHAYETS 4 24 Jul 03:44:50 03:48:00 18° 66° (ENE) 03:51:09
SWISSCUBE 24 Jul 03:45:05 03:49:41 45° 260° (W) 03:54:17 437.505
BEESAT 24 Jul 04:07:25 04:11:36 30° 263° (W) 04:15:49 436.000
CUSAT 1 24 Jul 04:10:40 04:13:25 16° 95° (E) 04:15:50 437.405
AO-7 24 Jul 04:10:49 04:16:56 22° 94° (E) 04:22:59 29.400- 29.500
BEESAT 3 24 Jul 04:12:03 04:13:48 12° 45° (NE) 04:15:32 437.485
GONETS M04 24 Jul 04:14:26 04:23:16 90° 52° (NE) 04:32:08
Gurwin Techsat 1B 24 Jul 04:16:45 04:21:58 57° 287° (WNW) 04:27:09 435.225
STARS 24 Jul 04:25:57 04:29:24 23° 68° (ENE) 04:32:53 437.465
ITUPSAT 1 24 Jul 04:29:00 04:32:24 19° 266° (W) 04:35:47 437.325
ITAMSAT 1 24 Jul 04:52:31 04:57:44 80° 285° (WNW) 05:02:54 435.822/435.867
CUBESAT XI-V 24 Jul 04:55:47 04:57:31 12° 63° (ENE) 04:59:15 437.345
ISS 24 Jul 05:00:05 05:02:18 17° 24° (NNE) 05:04:32 145.825
JUGNU 24 Jul 05:00:49 05:02:55 12° 174° (S) 05:05:01 437.505
KKS-1 24 Jul 05:12:33 05:16:50 49° 260° (W) 05:21:10 437.445
MOZHAYETS 4 24 Jul 05:20:26 05:24:49 41° 262° (W) 05:29:13
Cosmos 2499 24 Jul 05:31:40 05:38:45 38° 273° (W) 05:45:22 435.465 / 435.565
DANDE 24 Jul 05:37:11 05:43:31 62° 98° (E) 05:48:17 436.750
BEESAT 2 24 Jul 05:46:39 05:50:37 61° 58° (ENE) 05:54:33 435.950
BEESAT 3 24 Jul 05:47:57 05:51:53 65° 242° (WSW) 05:55:47 437.485
CUSAT 1 24 Jul 05:51:07 05:55:20 32° 280° (W) 05:58:42 437.405
STARS 24 Jul 06:01:49 06:05:36 28° 263° (W) 06:09:26 437.465
AO-7 24 Jul 06:02:00 06:10:21 74° 291° (WNW) 06:18:36 29.400- 29.500
PCSat 24 Jul 06:02:15 06:07:28 46° 57° (ENE) 06:12:39 145.827
GONETS M04 24 Jul 06:13:57 06:18:47 16° 282° (WNW) 06:23:40
HORYU 2 24 Jul 06:29:21 06:33:46 57° 101° (E) 06:38:09 437.375
CUBESAT XI-V 24 Jul 06:29:43 06:34:19 66° 259° (W) 06:38:55 437.345
ISS 24 Jul 06:35:48 06:39:03 71° 222° (SW) 06:42:17 145.825
NOAA 15 24 Jul 06:38:30 06:41:28 15° 92° (E) 06:44:26 137.62
JUGNU 24 Jul 06:48:49 06:51:03 12° 185° (S) 06:53:15 437.505
LilacSat-2 24 Jul 06:51:49 06:52:38 11° 91° (E) 06:53:28 437.200
GOMX 1 24 Jul 06:53:23 06:55:37 13° 91° (E) 06:57:53 467.674
O/OREOS (USA 219) 24 Jul 06:56:04 06:57:36 11° 54° (NE) 06:59:09 437.305
RS-15 24 Jul 07:07:59 07:17:36 33° 104° (ESE) 07:27:35 29.354- 29.394
BRITE-PL 24 Jul 07:08:50 07:13:19 39° 99° (E) 07:18:07 437.365/2234.400
SRMSAT 24 Jul 07:10:50 07:12:47 12° 173° (S) 07:14:44 437.500
AIST 2 24 Jul 07:17:21 07:20:58 28° 52° (NE) 07:24:34 435.215
Cubesat XI-IV 24 Jul 07:20:09 07:24:47 29° 96° (E) 07:29:22 437.490
DANDE 24 Jul 07:23:02 07:26:13 15° 285° (WNW) 07:29:01 436.750
CUTE-I 24 Jul 07:44:34 07:49:47 51° 100° (E) 07:54:56 437.470
PCSat 24 Jul 07:46:23 07:50:31 22° 254° (WSW) 07:54:37 145.827
NOAA 18 24 Jul 07:50:39 07:56:08 57° 102° (ESE) 08:01:32 137.9125
AO-7 24 Jul 07:57:13 08:01:41 16° 310° (NW) 08:06:08 29.400- 29.500
HORYU 2 24 Jul 08:07:44 08:09:48 13° 296° (WNW) 08:11:53 437.375
STRAND 1 24 Jul 08:10:26 08:15:36 84° 76° (ENE) 08:20:46 437.568
NOAA 15 24 Jul 08:16:25 08:21:35 60° 288° (WNW) 08:26:46 137.62
LilacSat-2 24 Jul 08:23:28 08:27:11 46° 286° (WNW) 08:30:53 437.200
GOMX 1 24 Jul 08:29:02 08:33:59 69° 284° (WNW) 08:39:14 467.674
O/OREOS (USA 219) 24 Jul 08:32:59 08:37:31 72° 251° (WSW) 08:42:02 437.305
SO-50 24 Jul 08:34:37 08:36:42 13° 107° (ESE) 08:38:46 436.795
CUTE 1.7 + AOD 2 24 Jul 08:37:38 08:39:27 12° 91° (E) 08:41:16 437.475
DOVE 4 24 Jul 08:39:44 08:44:51 73° 101° (ESE) 08:50:07 437.250
BRITE-PL 24 Jul 08:48:04 08:51:35 21° 291° (WNW) 08:55:17 437.365/2234.400
AIST 2 24 Jul 08:55:55 08:59:20 25° 248° (WSW) 09:02:46 435.215
SRMSAT 24 Jul 08:58:43 09:01:03 12° 184° (S) 09:03:23 437.500
Cubesat XI-IV 24 Jul 09:00:05 09:04:48 33° 292° (WNW) 09:09:30 437.490
CUBEBUG 2 24 Jul 09:13:04 09:15:09 13° 90° (E) 09:17:12 437.445
CINEMA 3 24 Jul 09:17:01 09:21:56 52° 99° (E) 09:26:48 145.822/145.860
RS-15 24 Jul 09:17:43 09:29:05 67° 305° (NW) 09:41:10 29.354- 29.394
HO-68 24 Jul 09:18:32 09:25:26 46° 100° (E) 09:32:15 435.675
YUBILEINY 24 Jul 09:19:01 09:22:37 13° 76° (ENE) 09:26:13 435.215
SEEDS 24 Jul 09:21:41 09:25:20 29° 96° (E) 09:28:57 437.485
PRISM 24 Jul 09:21:51 09:25:52 60° 74° (ENE) 09:29:53 437.425
CUTE-I 24 Jul 09:25:39 09:29:24 20° 296° (WNW) 09:33:07 437.470
NOAA 18 24 Jul 09:32:31 09:36:17 19° 298° (WNW) 09:40:03 137.9125
COMPASS 1 24 Jul 09:39:54 09:43:38 32° 97° (E) 09:47:21 437.405
Cosmos 2491 24 Jul 09:42:12 09:50:40 50° 77° (ENE) 09:59:06 435.465 / 435.565
Oscar 11 24 Jul 09:54:47 09:57:14 15° 92° (E) 09:59:39 145.826/435.025
CANX-2 24 Jul 09:57:16 10:01:26 60° 284° (WNW) 10:05:34 2200.000
ANTELSAT 24 Jul 10:05:52 10:08:33 15° 65° (ENE) 10:11:15 437.575/2403.000
AAUSAT CUBESAT 2 24 Jul 10:11:25 10:15:31 62° 100° (E) 10:19:34 437.432
CUTE 1.7 + AOD 2 24 Jul 10:11:29 10:15:32 47° 287° (WNW) 10:19:33 437.475
SO-50 24 Jul 10:11:43 10:16:35 70° 302° (WNW) 10:21:27 436.795
DOVE 4 24 Jul 10:19:31 10:21:56 13° 296° (WNW) 10:24:23 437.250
M-CUBED/EXP-1 PRIME 24 Jul 10:29:35 10:31:32 12° 96° (E) 10:33:28 437.505
